Terminal Aerodrome Forecast
Issued by NWS Mt. Holly, NJ

Home | Current Version | Previous Version | Text Only | Print | Product List | Glossary On
Versions: 1 2 3 4 5 6 7 8 9 10 11 12 13 14 15 16 17 18 19 20 21 22 23 24 25 26 27 28 29 30 31 32 33 34 35 36 37 38 39 40 41 42 43 44 45 46 47 48 49 50
000
FTUS41 KPHI 032339
TAFABE
TAF
KABE 032339Z 0400/0424 15005KT 3SM -FZRAPL BR OVC030
      TEMPO 0401/0405 OVC011
     FM040500 21006KT 2SM -FZRA BR OVC006 WS020/23040KT
     FM040800 23004KT 2SM -RA BR OVC006
     FM041100 28005KT 2SM -RA BR OVC009
      TEMPO 0411/0415 3/4SM BR OVC004
     FM042300 33005KT 5SM -RASNPL BR OVC015=

USA.gov is the U.S. government's official web portal to all federal, state and local government web resources and services.